Simultaneous Nadir Overpasses (SNOs) Predictions

Prediction of SNOs between AQUA and GOES-15 Satellite Orbit:

Table of predicted SNOs for the next 14.0 days since TLE Epoch: 9/7/2024
Index Date Time (AQUA) AQUA Lat,Lon GOES-15 Lat,Lon Distance(km) Time Diff (sec)
1 09/07/2024 10:07:03 -0.17, 62.43 -0.37, 61.42 114.04 80
2 09/07/2024 22:26:58 1.17, 57.60 0.35, 61.44 435.82 80
3 09/09/2024 22:09:32 0.27, 61.87 0.36, 61.43 50.21 80
4 09/10/2024 10:29:35 -1.27, 57.01 -0.34, 61.41 499.61 80
5 09/12/2024 10:12:06 -0.39, 61.29 -0.34, 61.40 13.02 80
6 09/14/2024 09:54:36 0.57, 65.57 -0.34, 61.40 474.38 80
7 09/14/2024 22:14:27 0.49, 60.76 0.32, 61.41 74.40 80
8 09/16/2024 21:56:55 -0.46, 65.05 0.32, 61.42 413.38 80
9 09/17/2024 10:16:55 -0.54, 60.21 -0.31, 61.41 136.86 80
10 09/19/2024 09:59:18 0.33, 64.52 -0.31, 61.42 352.54 80
11 09/19/2024 22:19:10 0.64, 59.71 0.29, 61.42 194.32 80
